Tracking 35331 objects as of 14-Sep-2026
HD Live streaming from Space Station
objects crossing your sky now

PEGASUS DEB


PEGASUS DEB is no longer on orbit


NORAD ID: 24036
Int'l Code: 1994-029CH
Launch date: May 19, 1994
Source: United States (US)
Launch site: AIR FORCE WESTERN TEST RANGE (AFWTR)
Decay date: 1997-03-19

Note: This is SATELLITE DEBRIS
Your satellite tracking list
Your tracking list is empty




NASA's NSSDC Master Catalog

Two Line Element Set (TLE):
1 24036U 94029CH  97070.95720051  .04342512  00000-0  20796-1 0  9997
2 24036 081.9156 265.0330 0017493 187.5407 172.5670 15.78462000 40377
Source of the keplerian elements: AFSPC